Torna al catalogo

STARLINK-5101

AttivoComunicazioniVLEO
NORAD 54822·PAYLOAD·🇺🇸 United States

Lanciato Dec 28, 2022 da Cape Canaveral Space Force Station

Loading…

Prossimi Passaggi (prossime 24 ore)

TLE

AggiornatoSource: CelesTrak SupGP

Epoca: Sep 15, 2026, 01:49 UTC

1 54822C 22177C   26258.07618056  .00026506  00000+0  96026-3 0  2588
2 54822  43.0005 146.6280 0000908 249.3108 202.8745 15.27558846    16

Traccia STARLINK-5101 in tempo reale con AllMySat

Download on the App Store